THOR ABLESTAR DEB, 235

Orbit data source: Space-Track

THOR ABLESTAR DEB, 235 is space debris in LEO originally from a launch on Thu, 29 Jun 1961 UTC launched from the Air Force Eastern Test Range (AFETR). Debris objects in space refer to the collection of defunct objects orbiting the Earth. Examples of debris include non-operational satellites, rocket bodies, and fragments generated from explosions, collisions, or faulty payload assembly.

Loading next visibility...
Identifier
235, 1961-015BT
Orbit
LEO
Country
Flag of USUS
Related business
Manufacturer
Unknown
Mission
Spacecraft
Bus & Motor
Unknown
Mass
Unknown
Launch date (UTC)
1961-06-29 (65 years ago)
Launch vehicle
Unknown
Launch site
Air Force Eastern Test Range (AFETR)
Object type
Payload
Rocket body
Debris
Shape & HBR
Unknown shape, 0.1 m
Radar Cross Section
Small (<0.1 m²)

Expand to show TLE details & history
Last TLE update: 8 hours ago

TLE from 8 hours ago
0 THOR ABLESTAR DEB
1 00235U 61015BT  26095.29198711  .00000581  00000-0  32460-3 0  9995
2 00235  66.9529  93.8934 0158032  27.0858 333.8367 14.11301344311048
Epoch: 2026-04-05T07:00Z
TLE epoch observation values (Epoch: 2026-04-05T07:00:27.686Z)
Latitude
-0.00001°
Longitude
155.17853°
Altitude
754.783 km
Speed
7.53 km/s
True Right ascension
06h 15m 34s
True Declination
0° 00' 00"
Sunlit
Object was in daylight at epoch
Visualization orbit readout
Latitude
Unknown
Longitude
Unknown
Altitude
Unknown
Speed
Unknown
Apparent Right ascension
Unknown
Apparent Declination
Unknown
Sunlit
N/A
Visualization observer readout
Local Sidereal Time
20:37:12
Azimuth
Unknown
Elevation
Unknown
Doppler factor
Unknown
Orbital elements
Apogee altitude
967.561 km
Perigee altitude
739.002 km
Semi-major axis
7,231.418 km
Eccentricity
0.0158
Inclination
66.9529°
RAAN
93.8934°
Arg. of periapsis
27.0858°
True anomaly
333.02384°
Mean anomaly
333.8367°
Eccentric anomaly
333.43172°
Mean motion
3.52946 °/min
Orbital period
102 mins
BSTAR
0.0003246

Documentation

Showing up to 5 results
|